Tracking 19146 objects as of 24-Apr-2018
HD Live streaming from Space Station
objects crossing your sky now

SCOUT G-1 DEB

Track SCOUT G-1 DEB now!
10-day predictions


NORAD ID: 22707
Int'l Code: 1993-041D
Perigee: 717.1 km
Apogee: 924.4 km
Inclination: 90.1 °
Period: 101.2 minutes
Semi major axis: 7191 km
RCS: 0.041 m2 (small)
Launch date: June 25, 1993
Source: United States (US)
Launch site: AIR FORCE WESTERN TEST RANGE (AFWTR)

Note: This is SATELLITE DEBRIS
aabbcc
Your satellite tracking list
Your tracking list is empty




NASA's NSSDC Master Catalog

Two Line Element Set (TLE):
1 22707U 93041D   18113.54483241 +.00000176 +00000-0 +65784-4 0  9998
2 22707 090.0998 252.4455 0144105 330.1350 029.1673 14.23485178285727
Source of the keplerian elements: AFSPC